FW2996 Weather Reports


Display with metric or nautical units.
time (UTC)temp
F
wind
direction
speed
MPH
gust
MPH
rain 1hr
in
rain 24hr
in
rain mn
in
humidity
%
barometer
mb
20260906125501 76 243 1.0 2.0 0.00 0.00 0.00 89 1055.5
20260906125001 76 243 0.0 0.0 0.00 0.00 0.00 89 1055.5
20260906124456 75 243 0.0 0.0 0.00 0.00 0.00 88 1055.3
20260906123951 75 243 0.0 0.0 0.00 0.00 0.00 88 1055.2
20260906123450 75 243 0.0 0.0 0.00 0.00 0.00 89 1055.4
20260906122945 75 243 0.0 0.0 0.00 0.00 0.00 89 1055.2
20260906122445 75 243 0.0 0.0 0.00 0.00 0.00 89 1055.2
20260906121942 75 243 0.0 0.0 0.00 0.00 0.00 89 1055.1
20260906121437 75 243 0.0 0.0 0.00 0.00 0.00 90 1055.0
20260906120934 75 244 0.0 0.0 0.00 0.00 0.00 89 1055.2
20260906120429 75 244 0.0 0.0 0.00 0.00 0.00 88 1055.0
20260906115925 76 243 0.0 0.0 0.00 0.00 0.00 88 1054.8
20260906115420 76 243 0.0 0.0 0.00 0.00 0.00 88 1054.8
20260906114915 76 243 0.0 0.0 0.00 0.00 0.00 88 1054.9
20260906114410 76 244 0.0 0.0 0.00 0.00 0.00 87 1054.7
20260906113906 76 244 0.0 0.0 0.00 0.00 0.00 87 1054.6
20260906113404 76 244 0.0 0.0 0.00 0.00 0.00 87 1054.5
20260906112859 77 244 0.0 0.0 0.00 0.00 0.00 86 1054.4
20260906112355 77 244 0.0 0.0 0.00 0.00 0.00 87 1054.5
20260906111849 77 244 0.0 0.0 0.00 0.00 0.00 87 1054.5
20260906111349 77 244 0.0 0.0 0.00 0.00 0.00 87 1054.1
20260906110844 77 244 0.0 0.0 0.00 0.00 0.00 87 1054.2
20260906110340 77 244 0.0 0.0 0.00 0.00 0.00 86 1053.8
20260906105839 77 244 0.0 0.0 0.00 0.00 0.00 86 1053.9
20260906105335 77 244 0.0 0.0 0.00 0.00 0.00 86 1054.2
20260906104831 77 244 0.0 0.0 0.00 0.00 0.00 86 1054.1
20260906104329 77 244 0.0 0.0 0.00 0.00 0.00 86 1053.9
20260906103828 77 244 0.0 0.0 0.00 0.00 0.00 86 1053.8
20260906103326 77 244 0.0 0.0 0.00 0.00 0.00 86 1053.8
20260906102822 77 244 0.0 0.0 0.00 0.00 0.00 85 1053.8
20260906102321 77 244 0.0 0.0 0.00 0.00 0.00 85 1053.8
20260906101817 77 244 0.0 0.0 0.00 0.00 0.00 85 1053.8
20260906101312 78 244 0.0 2.0 0.00 0.00 0.00 85 1053.9
20260906100808 78 257 0.0 1.0 0.00 0.00 0.00 85 1053.8
20260906100306 78 257 0.0 1.0 0.00 0.00 0.00 85 1053.9
20260906095802 78 270 0.0 0.0 0.00 0.00 0.00 85 1053.9
20260906095257 78 255 1.0 2.0 0.00 0.00 0.00 85 1053.8
20260906094756 78 222 0.0 2.0 0.00 0.00 0.00 85 1053.9
20260906094251 78 228 1.0 3.0 0.00 0.00 0.00 85 1054.1
20260906093747 78 250 1.0 1.0 0.00 0.00 0.00 85 1053.8
20260906093238 78 255 2.0 3.0 0.00 0.00 0.00 85 1053.9
20260906092732 78 242 0.0 3.0 0.00 0.00 0.00 84 1053.9
20260906092226 78 239 3.0 4.0 0.00 0.00 0.00 84 1053.8
20260906091722 78 244 2.0 4.0 0.00 0.00 0.00 84 1054.1
20260906091213 78 248 2.0 4.0 0.00 0.00 0.00 84 1053.9
20260906090709 78 251 1.0 3.0 0.00 0.00 0.00 84 1053.8
20260906090208 78 246 2.0 3.0 0.00 0.00 0.00 84 1053.9
20260906085707 78 219 1.0 2.0 0.00 0.00 0.00 83 1054.1
20260906085206 78 196 1.0 3.0 0.00 0.00 0.00 83 1053.8
20260906084701 79 221 2.0 3.0 0.00 0.00 0.00 83 1053.8
20260906084200 79 219 2.0 6.0 0.00 0.00 0.00 83 1054.1
20260906083655 79 240 1.0 3.0 0.00 0.00 0.00 82 1053.8
20260906083151 79 284 2.0 4.0 0.00 0.00 0.00 82 1053.9
20260906082646 79 232 1.0 2.0 0.00 0.00 0.00 82 1054.1
20260906082141 79 178 1.0 3.0 0.00 0.00 0.00 81 1053.8
20260906081637 79 229 4.0 4.0 0.00 0.00 0.00 81 1054.3
20260906081132 79 227 1.0 4.0 0.00 0.00 0.00 80 1054.1
20260906080629 80 211 1.0 3.0 0.00 0.00 0.00 80 1054.3
20260906080125 80 200 2.0 6.0 0.00 0.00 0.00 80 1054.2
20260906075624 80 184 3.0 3.0 0.00 0.00 0.00 79 1054.5
20260906075119 80 204 1.0 4.0 0.00 0.00 0.00 79 1054.4
20260906074614 80 224 4.0 4.0 0.00 0.00 0.00 79 1054.5
20260906074107 80 184 3.0 4.0 0.00 0.00 0.00 79 1054.7
20260906073602 80 188 2.0 6.0 0.00 0.00 0.00 78 1054.6
20260906073058 80 184 4.0 7.0 0.00 0.00 0.00 78 1054.6
20260906072552 80 134 1.0 4.0 0.00 0.00 0.00 79 1054.8
20260906072049 80 206 2.0 3.0 0.00 0.00 0.00 79 1054.7
20260906071545 80 151 2.0 3.0 0.00 0.00 0.00 79 1054.6
20260906071040 80 186 0.0 4.0 0.00 0.00 0.00 78 1054.8
20260906070536 80 188 1.0 3.0 0.00 0.00 0.00 78 1054.8
20260906070032 81 162 1.0 3.0 0.00 0.00 0.00 78 1054.8
20260906065531 81 166 4.0 6.0 0.00 0.00 0.00 77 1054.9
20260906065027 81 114 1.0 3.0 0.00 0.00 0.00 77 1054.9
20260906064522 81 161 1.0 3.0 0.00 0.00 0.00 77 1055.1
20260906064017 81 144 2.0 2.0 0.00 0.00 0.00 77 1054.9
20260906063513 81 142 1.0 3.0 0.00 0.00 0.00 76 1055.2
20260906063008 82 205 0.0 4.0 0.00 0.00 0.00 76 1055.1
20260906062502 82 170 1.0 4.0 0.00 0.00 0.00 76 1055.1
20260906061957 82 198 2.0 6.0 0.00 0.00 0.00 76 1055.1
20260906061453 82 187 2.0 3.0 0.00 0.00 0.00 76 1055.2
20260906060948 82 176 2.0 8.0 0.00 0.00 0.00 76 1055.0
20260906060444 82 228 3.0 9.0 0.00 0.00 0.00 75 1055.2
20260906055941 82 180 2.0 6.0 0.00 0.00 0.00 75 1055.2
20260906055436 82 186 5.0 7.0 0.00 0.00 0.00 75 1055.3
20260906054931 82 226 3.0 6.0 0.00 0.00 0.00 75 1055.3
20260906054426 82 195 3.0 11.0 0.00 0.00 0.00 75 1055.1
20260906053922 82 184 1.0 6.0 0.00 0.00 0.00 74 1055.1
20260906053418 83 129 1.0 8.0 0.00 0.00 0.00 74 1054.9
20260906052913 83 147 2.0 7.0 0.00 0.00 0.00 74 1055.2
20260906052409 83 183 6.0 9.0 0.00 0.00 0.00 74 1055.1
20260906051906 83 172 2.0 8.0 0.00 0.00 0.00 73 1055.2
20260906051406 83 152 5.0 8.0 0.00 0.00 0.00 72 1055.2
20260906050902 83 169 5.0 9.0 0.00 0.00 0.00 72 1055.2
20260906050356 83 223 3.0 6.0 0.00 0.00 0.00 71 1055.3
20260906045855 83 187 3.0 4.0 0.00 0.00 0.00 71 1055.4
20260906045355 84 172 4.0 9.0 0.00 0.00 0.00 71 1055.2
20260906044851 84 156 4.0 6.0 0.00 0.00 0.00 70 1055.3
20260906044351 84 186 6.0 7.0 0.00 0.00 0.00 70 1055.3
20260906043847 84 147 2.0 4.0 0.00 0.00 0.00 70 1055.3
20260906043343 84 182 4.0 7.0 0.00 0.00 0.00 70 1055.4
20260906042838 84 185 6.0 8.0 0.00 0.00 0.00 69 1055.5
20260906042337 84 218 6.0 8.0 0.00 0.00 0.00 69 1055.3
20260906041833 84 115 5.0 8.0 0.00 0.00 0.00 69 1055.3
20260906041328 84 147 4.0 7.0 0.00 0.00 0.00 69 1055.2
20260906040828 84 173 4.0 7.0 0.00 0.00 0.00 69 1055.3
20260906040323 85 159 4.0 7.0 0.00 0.00 0.00 69 1055.3
20260906035819 85 173 5.0 8.0 0.00 0.00 0.00 68 1055.4
20260906035314 85 167 3.0 6.0 0.00 0.00 0.00 68 1055.2
20260906034809 85 204 5.0 7.0 0.00 0.00 0.00 67 1055.3
20260906034303 85 128 7.0 11.0 0.00 0.00 0.00 67 1055.1
20260906033759 86 212 5.0 9.0 0.00 0.00 0.00 66 1055.0
20260906033258 86 122 4.0 9.0 0.00 0.00 0.00 65 1055.0
20260906032756 86 115 6.0 11.0 0.00 0.00 0.00 65 1055.0
20260906032255 86 115 5.0 7.0 0.00 0.00 0.00 63 1055.0
20260906031750 86 134 9.0 10.0 0.00 0.00 0.00 62 1054.8
20260906031247 87 174 5.0 8.0 0.00 0.00 0.00 62 1054.8
20260906030746 87 123 4.0 7.0 0.00 0.00 0.00 62 1054.7
20260906030242 87 121 4.0 6.0 0.00 0.00 0.00 61 1054.6
20260906025742 87 129 3.0 8.0 0.00 0.00 0.00 60 1054.5
20260906025241 87 163 5.0 11.0 0.00 0.00 0.00 60 1054.3
20260906024740 87 135 2.0 9.0 0.00 0.00 0.00 60 1054.2
20260906024234 87 129 4.0 6.0 0.00 0.00 0.00 59 1053.9
20260906023730 87 138 2.0 6.0 0.00 0.00 0.00 59 1053.8
20260906023225 88 124 1.0 3.0 0.00 0.00 0.00 59 1053.7
20260906022720 88 143 5.0 8.0 0.00 0.00 0.00 58 1053.5
20260906022216 88 137 3.0 6.0 0.00 0.00 0.00 57 1053.5
20260906021711 88 115 3.0 4.0 0.00 0.00 0.00 57 1053.3
20260906021209 88 162 4.0 7.0 0.00 0.00 0.00 57 1053.4
20260906020705 88 147 5.0 7.0 0.00 0.00 0.00 57 1053.3
20260906020159 89 121 3.0 7.0 0.00 0.00 0.00 56 1053.3
20260906015654 89 118 7.0 9.0 0.00 0.00 0.00 55 1053.2
20260906015152 89 86 2.0 8.0 0.00 0.00 0.00 55 1053.0
20260906014646 90 113 7.0 9.0 0.00 0.00 0.00 54 1053.0
20260906014142 90 134 4.0 10.0 0.00 0.00 0.00 53 1053.0
20260906013638 90 123 5.0 9.0 0.00 0.00 0.00 53 1052.9
20260906013134 91 188 6.0 8.0 0.00 0.00 0.00 52 1052.9
20260906012633 91 151 6.0 11.0 0.00 0.00 0.00 51 1052.9
20260906012128 91 127 4.0 8.0 0.00 0.00 0.00 51 1052.8
20260906011624 91 162 4.0 10.0 0.00 0.00 0.00 51 1052.8
20260906011124 91 173 6.0 13.0 0.00 0.00 0.00 50 1052.7
20260906010619 91 122 7.0 11.0 0.00 0.00 0.00 49 1052.8
20260906010116 91 123 5.0 9.0 0.00 0.00 0.00 48 1052.8
20260906005609 91 101 2.0 3.0 0.00 0.00 0.00 48 1052.6
20260906005108 91 131 1.0 3.0 0.00 0.00 0.00 46 1052.7
20260906004608 92 135 2.0 2.0 0.00 0.00 0.00 46 1052.6
20260906004102 93 133 2.0 4.0 0.00 0.00 0.00 45 1052.8
20260906003553 93 155 3.0 4.0 0.00 0.00 0.00 44 1052.5
20260906003048 93 135 0.0 3.0 0.00 0.00 0.00 44 1052.6
20260906002543 93 131 2.0 3.0 0.00 0.00 0.00 44 1052.3
20260906002037 94 102 0.0 2.0 0.00 0.00 0.00 43 1052.4
20260906001533 94 130 1.0 2.0 0.00 0.00 0.00 43 1052.3
20260906001027 94 188 2.0 2.0 0.00 0.00 0.00 42 1052.3
20260906000524 94 130 2.0 4.0 0.00 0.00 0.00 43 1052.3
20260906000018 94 114 1.0 6.0 0.00 0.00 0.00 43 1052.5
20260905235512 94 139 2.0 7.0 0.00 0.00 0.00 42 1052.5
20260905235007 94 159 2.0 7.0 0.00 0.00 0.00 42 1052.5
20260905234503 95 119 2.0 3.0 0.00 0.00 0.00 41 1052.4
20260905234002 95 123 4.0 8.0 0.00 0.00 0.00 41 1052.5
20260905233457 94 96 2.0 3.0 0.00 0.00 0.00 41 1052.4
20260905232956 95 112 4.0 6.0 0.00 0.00 0.00 41 1052.4
20260905232452 95 158 5.0 9.0 0.00 0.00 0.00 41 1052.5
20260905231948 94 119 1.0 4.0 0.00 0.00 0.00 41 1052.5
20260905231443 94 134 1.0 2.0 0.00 0.00 0.00 43 1052.4
20260905230934 94 134 6.0 8.0 0.00 0.00 0.00 43 1052.7
20260905230432 94 131 7.0 9.0 0.00 0.00 0.00 43 1052.5
20260905225925 95 113 4.0 8.0 0.00 0.00 0.00 42 1052.5
20260905225420 95 146 4.0 13.0 0.00 0.00 0.00 42 1052.5
20260905224915 95 125 6.0 8.0 0.00 0.00 0.00 42 1052.4
20260905224411 96 129 4.0 10.0 0.00 0.00 0.00 40 1052.4
20260905223905 95 65 0.0 9.0 0.00 0.00 0.00 40 1052.4
20260905223403 96 73 1.0 3.0 0.00 0.00 0.00 40 1052.5
20260905222903 96 131 4.0 7.0 0.00 0.00 0.00 41 1052.3
20260905222402 96 126 8.0 9.0 0.00 0.00 0.00 41 1052.4
20260905221858 95 76 2.0 6.0 0.00 0.00 0.00 40 1052.5
20260905221355 95 64 5.0 9.0 0.00 0.00 0.00 40 1052.5
20260905220850 96 174 4.0 6.0 0.00 0.00 0.00 41 1052.7
20260905220347 96 147 3.0 11.0 0.00 0.00 0.00 41 1052.6
20260905215846 97 125 8.0 11.0 0.00 0.00 0.00 41 1052.5
20260905215341 97 152 6.0 8.0 0.00 0.00 0.00 40 1052.8
20260905214832 97 85 4.0 9.0 0.00 0.00 0.00 40 1052.5
20260905214327 98 141 7.0 9.0 0.00 0.00 0.00 41 1052.6
20260905213822 97 150 4.0 9.0 0.00 0.00 0.00 42 1052.6
20260905213318 97 197 4.0 7.0 0.00 0.00 0.00 41 1052.6
20260905212813 96 178 5.0 10.0 0.00 0.00 0.00 41 1052.6
20260905212312 97 104 2.0 8.0 0.00 0.00 0.00 40 1052.5
20260905211807 97 75 1.0 3.0 0.00 0.00 0.00 39 1052.7
20260905211302 97 134 2.0 7.0 0.00 0.00 0.00 39 1052.7
20260905210759 98 129 3.0 6.0 0.00 0.00 0.00 38 1052.7
20260905210258 98 208 3.0 4.0 0.00 0.00 0.00 39 1052.8
20260905205757 97 242 2.0 3.0 0.00 0.00 0.00 39 1053.0
20260905205252 98 147 4.0 10.0 0.00 0.00 0.00 39 1053.0
20260905204751 98 170 5.0 7.0 0.00 0.00 0.00 40 1053.0
20260905204248 98 156 3.0 10.0 0.00 0.00 0.00 40 1053.0
20260905203747 97 54 1.0 6.0 0.00 0.00 0.00 40 1053.4
20260905203242 95 8 3.0 4.0 0.00 0.00 0.00 41 1053.4
20260905202738 96 134 2.0 9.0 0.00 0.00 0.00 42 1053.4
20260905202238 96 141 5.0 8.0 0.00 0.00 0.00 41 1053.5
20260905201733 95 122 3.0 10.0 0.00 0.00 0.00 43 1053.5
20260905201228 96 141 5.0 10.0 0.00 0.00 0.00 41 1053.6
20260905200723 96 72 0.0 2.0 0.00 0.00 0.00 42 1053.7
20260905200219 96 146 2.0 3.0 0.00 0.00 0.00 42 1053.8
20260905195717 95 129 2.0 6.0 0.00 0.00 0.00 43 1054.1
20260905195213 95 124 4.0 11.0 0.00 0.00 0.00 43 1054.2
20260905194708 96 122 5.0 8.0 0.00 0.00 0.00 42 1054.2
20260905194207 95 180 4.0 6.0 0.00 0.00 0.00 42 1054.2
20260905193701 93 150 4.0 7.0 0.00 0.00 0.00 45 1054.3
20260905193156 94 138 9.0 9.0 0.00 0.00 0.00 43 1054.4
20260905192652 96 158 3.0 3.0 0.00 0.00 0.00 41 1054.5
20260905192149 96 138 4.0 4.0 0.00 0.00 0.00 41 1054.4
20260905191648 96 252 2.0 3.0 0.00 0.00 0.00 41 1054.8
20260905191145 95 132 7.0 8.0 0.00 0.00 0.00 43 1054.7
20260905190644 95 168 4.0 9.0 0.00 0.00 0.00 44 1054.8
20260905190144 93 125 7.0 9.0 0.00 0.00 0.00 47 1054.8
20260905185637 93 231 3.0 8.0 0.00 0.00 0.00 46 1055.0
20260905185132 93 152 2.0 4.0 0.00 0.00 0.00 47 1055.0
20260905184632 94 141 6.0 11.0 0.00 0.00 0.00 47 1055.1
20260905184131 94 197 5.0 8.0 0.00 0.00 0.00 46 1055.1
20260905183631 94 117 4.0 10.0 0.00 0.00 0.00 47 1055.4
20260905183126 94 146 2.0 6.0 0.00 0.00 0.00 46 1055.2
20260905182625 92 140 7.0 13.0 0.00 0.00 0.00 49 1055.5
20260905182125 93 227 2.0 3.0 0.00 0.00 0.00 46 1055.5
20260905181620 92 106 4.0 6.0 0.00 0.00 0.00 49 1055.7
20260905181119 91 116 3.0 11.0 0.00 0.00 0.00 52 1055.8
20260905180614 92 90 4.0 7.0 0.00 0.00 0.00 51 1055.9
20260905180110 92 121 4.0 9.0 0.00 0.00 0.00 53 1055.9
20260905175609 92 139 6.0 10.0 0.00 0.00 0.00 53 1056.3
20260905175104 91 130 3.0 3.0 0.00 0.00 0.00 54 1056.1
20260905174600 92 219 4.0 8.0 0.00 0.00 0.00 53 1056.3
20260905174055 91 157 4.0 9.0 0.00 0.00 0.00 54 1056.4
20260905173551 91 147 2.0 8.0 0.00 0.00 0.00 54 1056.5
20260905173046 91 131 6.0 8.0 0.00 0.00 0.00 53 1056.5
20260905172545 91 121 7.0 9.0 0.00 0.00 0.00 55 1056.5
20260905172040 90 61 2.0 6.0 0.00 0.00 0.00 54 1056.6
20260905171537 91 171 4.0 9.0 0.00 0.00 0.00 53 1056.4
20260905171032 91 118 2.0 4.0 0.00 0.00 0.00 53 1056.4
20260905170529 88 151 2.0 7.0 0.00 0.00 0.00 58 1056.5
20260905170024 90 220 5.0 8.0 0.00 0.00 0.00 58 1056.7
20260905165518 90 204 4.0 11.0 0.00 0.00 0.00 57 1056.6
20260905165013 89 115 1.0 6.0 0.00 0.00 0.00 59 1056.6
20260905164508 89 188 3.0 7.0 0.00 0.00 0.00 61 1056.7
20260905164003 89 274 2.0 6.0 0.00 0.00 0.00 59 1056.5
20260905163459 89 159 6.0 8.0 0.00 0.00 0.00 59 1056.8
20260905162955 89 178 3.0 4.0 0.00 0.00 0.00 58 1056.7
20260905162450 92 119 2.0 6.0 0.00 0.00 0.00 54 1056.6
20260905161944 90 180 3.0 8.0 0.00 0.00 0.00 60 1056.6
20260905161438 89 154 2.0 6.0 0.00 0.00 0.00 60 1056.8
20260905160936 89 255 4.0 6.0 0.00 0.00 0.00 62 1056.8
20260905160430 89 254 1.0 4.0 0.00 0.00 0.00 62 1056.7
20260905155930 90 136 3.0 6.0 0.00 0.00 0.00 61 1056.9
20260905155425 88 267 3.0 7.0 0.00 0.00 0.00 63 1056.8
20260905154923 87 167 3.0 8.0 0.00 0.00 0.00 66 1056.8
20260905154419 86 244 3.0 8.0 0.00 0.00 0.00 69 1056.8
20260905153915 86 168 2.0 9.0 0.00 0.00 0.00 69 1056.9
20260905153411 86 223 4.0 8.0 0.00 0.00 0.00 70 1056.6
20260905152910 86 187 4.0 6.0 0.00 0.00 0.00 69 1056.8
20260905152409 86 186 2.0 6.0 0.00 0.00 0.00 71 1056.8
20260905151905 87 339 1.0 8.0 0.00 0.00 0.00 73 1056.9
20260905151400 87 100 4.0 4.0 0.00 0.00 0.00 71 1056.8
20260905150854 86 143 4.0 6.0 0.00 0.00 0.00 74 1056.9
20260905150349 85 133 1.0 7.0 0.00 0.00 0.00 77 1056.7
20260905145846 84 152 2.0 4.0 0.00 0.00 0.00 79 1056.9
20260905145340 84 277 2.0 6.0 0.00 0.00 0.00 80 1056.9
20260905144839 82 143 1.0 3.0 0.00 0.00 0.00 83 1056.7
20260905144335 82 170 4.0 6.0 0.00 0.00 0.00 85 1056.6
20260905143833 82 207 2.0 3.0 0.00 0.00 0.00 84 1056.8
20260905143328 82 235 3.0 7.0 0.00 0.00 0.00 85 1056.8
20260905142828 80 226 4.0 6.0 0.00 0.00 0.00 89 1056.9
20260905142321 80 211 2.0 6.0 0.00 0.00 0.00 90 1056.8
20260905141818 81 248 6.0 9.0 0.00 0.00 0.00 88 1056.6
20260905141313 82 189 2.0 3.0 0.00 0.00 0.00 88 1056.6
20260905140808 80 214 2.0 3.0 0.00 0.00 0.00 90 1056.7
20260905140302 79 241 1.0 3.0 0.00 0.00 0.00 92 1056.7
20260905135801 78 218 1.0 3.0 0.00 0.00 0.00 94 1056.4
20260905135258 77 212 1.0 2.0 0.00 0.00 0.00 95 1056.4
20260905134757 77 140 2.0 3.0 0.00 0.00 0.00 96 1056.4
20260905134251 76 124 1.0 2.0 0.00 0.00 0.00 97 1056.4
20260905133745 75 125 2.0 3.0 0.00 0.00 0.00 97 1056.4
20260905133241 75 121 0.0 2.0 0.00 0.00 0.00 98 1056.5
20260905132740 75 115 1.0 3.0 0.00 0.00 0.00 98 1056.3
20260905132236 75 116 1.0 2.0 0.00 0.00 0.00 96 1056.3
20260905131730 74 116 1.0 1.0 0.00 0.00 0.00 97 1056.2
20260905131225 74 116 1.0 2.0 0.00 0.00 0.00 97 1056.0
20260905130720 74 117 1.0 2.0 0.00 0.00 0.00 97 1056.0
20260905130219 74 216 2.0 2.0 0.00 0.00 0.00 97 1056.0